This is the latest recevied weather packets stored in our database for station/object WA3NOA-2. If no packets are shown the sender has not sent any weather packets the latest 1 day(s).
| Time | Temp. | Humidity | Pressure | Rain* | Wind** | Luminosity | Snow |
|---|---|---|---|---|---|---|---|
| 1836274788 | 20.56° C | 61% | 1016.3 hPa | 0 mm | 0 m/s | - | - |
| 1836274665 | 20.56° C | 61% | 1016.3 hPa | 0 mm | 0 m/s | - | - |
| 1836274557 | 20.56° C | 61% | 1016.3 hPa | 0 mm | 0 m/s | - | - |
| 1836274312 | 20.56° C | 61% | 1016.3 hPa | 0 mm | 0 m/s | - | - |
| 1836274263 | 21.11° C | 60% | 1016.3 hPa | 0 mm | 0 m/s | - | - |
| 1836274012 | 21.11° C | 60% | 1016.2 hPa | 0 mm | 0 m/s | - | - |
| 1778041327 | 19.44° C | 63% | 1003.8 hPa | 0 mm | 0.45 m/s, 254° | - | - |
| 1778041088 | 19.44° C | 62% | 1003.8 hPa | 0 mm | 1.34 m/s, 265° | - | - |
| 1778041026 | 19.44° C | 62% | 1003.9 hPa | 0 mm | 2.68 m/s, 239° | - | - |
| 1778040727 | 19.44° C | 62% | 1003.9 hPa | 0 mm | 0.45 m/s, 281° | - | - |
| 1778040427 | 20° C | 62% | 1003.8 hPa | 0 mm | 1.79 m/s, 286° | - | - |
| 1778040189 | 20° C | 61% | 1003.8 hPa | 0 mm | 1.79 m/s, 267° | - | - |
| 1778040127 | 20° C | 61% | 1003.8 hPa | 0 mm | 0.89 m/s, 259° | - | - |
| 1778039826 | 20° C | 61% | 1003.7 hPa | 0 mm | 1.34 m/s, 290° | - | - |
| 1778039527 | 20° C | 61% | 1003.8 hPa | 0 mm | 3.58 m/s, 268° | - | - |
| 1778039288 | 20° C | 60% | 1003.8 hPa | 0 mm | 0.89 m/s, 259° | - | - |
| 1778039226 | 20° C | 60% | 1003.8 hPa | 0 mm | 0 m/s | - | - |
| 1778038926 | 20° C | 60% | 1003.8 hPa | 0 mm | 0 m/s | - | - |
| 1778038626 | 20° C | 60% | 1003.8 hPa | 0 mm | 2.68 m/s, 279° | - | - |
| 1778038388 | 20° C | 60% | 1003.7 hPa | 0 mm | 2.24 m/s, 207° | - | - |
| 1778038326 | 20° C | 60% | 1003.7 hPa | 0 mm | 3.13 m/s, 259° | - | - |
| 1778038026 | 20° C | 60% | 1003.6 hPa | 0 mm | 0 m/s | - | - |
| 1778037726 | 20.56° C | 60% | 1003.7 hPa | 0 mm | 1.79 m/s, 257° | - | - |
| 1778037488 | 20.56° C | 59% | 1003.7 hPa | 0 mm | 3.13 m/s, 255° | - | - |
| 1778037426 | 20.56° C | 59% | 1003.7 hPa | 0 mm | 3.58 m/s, 277° | - | - |
* Rain latest hour (hover to see other rain measurements)
** Current wind speed in m/s (hover to see current wind gust speed)